Year,Month,Day,Hour,Minute,Value (Times are PST for temperature in C)
2015,02,15,00,00,3.90
2015,02,15,00,01,3.90
2015,02,15,00,02,3.90
2015,02,15,00,03,3.90
2015,02,15,00,04,3.90
2015,02,15,00,05,3.90
2015,02,15,00,06,4.00
2015,02,15,00,07,4.00
2015,02,15,00,08,4.00
2015,02,15,00,09,4.00
2015,02,15,00,10,4.00
2015,02,15,00,11,4.00
2015,02,15,00,12,3.90
2015,02,15,00,13,3.90
2015,02,15,00,14,3.90
2015,02,15,00,15,3.80
2015,02,15,00,16,3.80
2015,02,15,00,17,3.80
2015,02,15,00,18,3.80
2015,02,15,00,19,3.80
2015,02,15,00,20,3.80
2015,02,15,00,21,3.70
2015,02,15,00,22,3.70
2015,02,15,00,23,3.70
2015,02,15,00,24,3.70
2015,02,15,00,25,3.70
2015,02,15,00,26,3.70
2015,02,15,00,27,3.70
2015,02,15,00,28,3.80
2015,02,15,00,29,3.80
2015,02,15,00,30,3.90
2015,02,15,00,31,4.00
2015,02,15,00,32,4.20
2015,02,15,00,33,4.30
2015,02,15,00,34,4.50
2015,02,15,00,35,4.60
2015,02,15,00,36,4.60
2015,02,15,00,37,4.60
2015,02,15,00,38,4.60
2015,02,15,00,39,4.60
2015,02,15,00,40,4.60
2015,02,15,00,41,4.60
2015,02,15,00,42,5.00
2015,02,15,00,43,5.20
2015,02,15,00,44,5.20
2015,02,15,00,45,5.20
2015,02,15,00,46,5.10
2015,02,15,00,47,5.00
2015,02,15,00,48,4.90
2015,02,15,00,49,4.90
2015,02,15,00,50,4.80
2015,02,15,00,51,4.70
2015,02,15,00,52,4.60
2015,02,15,00,53,4.60
2015,02,15,00,54,4.50
2015,02,15,00,55,4.50
2015,02,15,00,56,4.40
2015,02,15,00,57,4.40
2015,02,15,00,58,4.40
2015,02,15,00,59,4.30
2015,02,15,01,00,4.30
2015,02,15,01,01,4.30
2015,02,15,01,02,4.30
2015,02,15,01,03,4.30
2015,02,15,01,04,4.30
2015,02,15,01,05,4.20
2015,02,15,01,06,4.20
2015,02,15,01,07,4.20
2015,02,15,01,08,4.20
2015,02,15,01,09,4.20
2015,02,15,01,10,4.20
2015,02,15,01,11,4.20
2015,02,15,01,12,4.20
2015,02,15,01,13,4.20
2015,02,15,01,14,4.10
2015,02,15,01,15,4.10
2015,02,15,01,16,4.10
2015,02,15,01,17,4.00
2015,02,15,01,18,4.00
2015,02,15,01,19,4.00
2015,02,15,01,20,3.90
2015,02,15,01,21,3.90
2015,02,15,01,22,3.80
2015,02,15,01,23,3.80
2015,02,15,01,24,3.80
2015,02,15,01,25,3.70
2015,02,15,01,26,3.70
2015,02,15,01,27,3.60
2015,02,15,01,28,3.60
2015,02,15,01,29,3.60
2015,02,15,01,30,3.60
2015,02,15,01,31,3.60
2015,02,15,01,32,3.60
2015,02,15,01,33,3.50
2015,02,15,01,34,3.50
2015,02,15,01,35,3.50
2015,02,15,01,36,3.50
2015,02,15,01,37,3.40
2015,02,15,01,38,3.40
2015,02,15,01,39,3.30
2015,02,15,01,40,3.30
2015,02,15,01,41,3.40
2015,02,15,01,42,3.40
2015,02,15,01,43,3.40
2015,02,15,01,44,3.40
2015,02,15,01,45,3.40
2015,02,15,01,46,3.50
2015,02,15,01,47,3.50
2015,02,15,01,48,3.50
2015,02,15,01,49,3.50
2015,02,15,01,50,3.60
2015,02,15,01,51,3.60
2015,02,15,01,52,3.60
2015,02,15,01,53,3.60
2015,02,15,01,54,3.50
2015,02,15,01,55,3.50
2015,02,15,01,56,3.50
2015,02,15,01,57,3.50
2015,02,15,01,58,3.40
2015,02,15,01,59,3.40
2015,02,15,02,00,3.40
2015,02,15,02,01,3.40
2015,02,15,02,02,3.40
2015,02,15,02,03,3.30
2015,02,15,02,04,3.30
2015,02,15,02,05,3.30
2015,02,15,02,06,3.30
2015,02,15,02,07,3.30
2015,02,15,02,08,3.30
2015,02,15,02,09,3.20
2015,02,15,02,10,3.20
2015,02,15,02,11,3.20
2015,02,15,02,12,3.20
2015,02,15,02,13,3.30
2015,02,15,02,14,3.30
2015,02,15,02,15,3.30
2015,02,15,02,16,3.30
2015,02,15,02,17,3.30
2015,02,15,02,18,3.40
2015,02,15,02,19,3.40
2015,02,15,02,20,3.40
2015,02,15,02,21,3.40
2015,02,15,02,22,3.40
2015,02,15,02,23,3.40
2015,02,15,02,24,3.50
2015,02,15,02,25,3.50
2015,02,15,02,26,3.50
2015,02,15,02,27,3.50
2015,02,15,02,28,3.50
2015,02,15,02,29,3.50
2015,02,15,02,30,3.50
2015,02,15,02,31,3.50
2015,02,15,02,32,3.60
2015,02,15,02,33,3.60
2015,02,15,02,34,3.60
2015,02,15,02,35,3.60
2015,02,15,02,36,3.60
2015,02,15,02,37,3.60
2015,02,15,02,38,3.60
2015,02,15,02,39,3.60
2015,02,15,02,40,3.60
2015,02,15,02,41,3.50
2015,02,15,02,42,3.40
2015,02,15,02,43,3.40
2015,02,15,02,44,3.30
2015,02,15,02,45,3.30
2015,02,15,02,46,3.20
2015,02,15,02,47,3.20
2015,02,15,02,48,3.20
2015,02,15,02,49,3.20
2015,02,15,02,50,3.20
2015,02,15,02,51,3.10
2015,02,15,02,52,3.10
2015,02,15,02,53,3.10
2015,02,15,02,54,3.10
2015,02,15,02,55,3.10
2015,02,15,02,56,3.10
2015,02,15,02,57,3.10
2015,02,15,02,58,3.10
2015,02,15,02,59,3.00
2015,02,15,03,00,3.00
2015,02,15,03,01,3.00
2015,02,15,03,02,3.00
2015,02,15,03,03,3.10
2015,02,15,03,04,3.10
2015,02,15,03,05,3.10
2015,02,15,03,06,3.10
2015,02,15,03,07,3.10
2015,02,15,03,08,3.10
2015,02,15,03,09,3.10
2015,02,15,03,10,3.10
2015,02,15,03,11,3.10
2015,02,15,03,12,3.10
2015,02,15,03,13,3.00
2015,02,15,03,14,3.00
2015,02,15,03,15,2.90
2015,02,15,03,16,2.90
2015,02,15,03,17,2.90
2015,02,15,03,18,2.80
2015,02,15,03,19,2.80
2015,02,15,03,20,2.70
2015,02,15,03,21,2.70
2015,02,15,03,22,2.60
2015,02,15,03,23,2.60
2015,02,15,03,24,2.50
2015,02,15,03,25,2.50
2015,02,15,03,26,2.50
2015,02,15,03,27,2.50
2015,02,15,03,28,2.50
2015,02,15,03,29,2.50
2015,02,15,03,30,2.60
2015,02,15,03,31,2.60
2015,02,15,03,32,2.60
2015,02,15,03,33,2.70
2015,02,15,03,34,2.70
2015,02,15,03,35,2.80
2015,02,15,03,36,2.80
2015,02,15,03,37,2.80
2015,02,15,03,38,2.80
2015,02,15,03,39,2.80
2015,02,15,03,40,2.70
2015,02,15,03,41,2.50
2015,02,15,03,42,2.40
2015,02,15,03,43,2.30
2015,02,15,03,44,2.30
2015,02,15,03,45,2.30
2015,02,15,03,46,2.30
2015,02,15,03,47,2.30
2015,02,15,03,48,2.30
2015,02,15,03,49,2.40
2015,02,15,03,50,2.40
2015,02,15,03,51,2.50
2015,02,15,03,52,2.50
2015,02,15,03,53,2.50
2015,02,15,03,54,2.60
2015,02,15,03,55,2.60
2015,02,15,03,56,2.70
2015,02,15,03,57,2.70
2015,02,15,03,58,2.80
2015,02,15,03,59,2.80
2015,02,15,04,00,2.80
2015,02,15,04,01,2.80
2015,02,15,04,02,2.90
2015,02,15,04,03,2.90
2015,02,15,04,04,2.90
2015,02,15,04,05,2.90
2015,02,15,04,06,3.00
2015,02,15,04,07,3.00
2015,02,15,04,08,3.10
2015,02,15,04,09,3.10
2015,02,15,04,10,3.10
2015,02,15,04,11,3.10
2015,02,15,04,12,3.10
2015,02,15,04,13,3.10
2015,02,15,04,14,3.20
2015,02,15,04,15,3.20
2015,02,15,04,16,3.20
2015,02,15,04,17,3.20
2015,02,15,04,18,3.20
2015,02,15,04,19,3.20
2015,02,15,04,20,3.20
2015,02,15,04,21,3.10
2015,02,15,04,22,3.00
2015,02,15,04,23,3.00
2015,02,15,04,24,2.90
2015,02,15,04,25,2.90
2015,02,15,04,26,2.90
2015,02,15,04,27,2.80
2015,02,15,04,28,2.80
2015,02,15,04,29,2.80
2015,02,15,04,30,2.70
2015,02,15,04,31,2.60
2015,02,15,04,32,2.50
2015,02,15,04,33,2.40
2015,02,15,04,34,2.30
2015,02,15,04,35,2.20
2015,02,15,04,36,2.10
2015,02,15,04,37,2.10
2015,02,15,04,38,2.00
2015,02,15,04,39,1.90
2015,02,15,04,40,1.90
2015,02,15,04,41,1.80
2015,02,15,04,42,1.80
2015,02,15,04,43,1.80
2015,02,15,04,44,1.70
2015,02,15,04,45,1.70
2015,02,15,04,46,1.70
2015,02,15,04,47,1.70
2015,02,15,04,48,1.70
2015,02,15,04,49,1.70
2015,02,15,04,50,1.70
2015,02,15,04,51,1.70
2015,02,15,04,52,1.70
2015,02,15,04,53,1.60
2015,02,15,04,54,1.50
2015,02,15,04,55,1.50
2015,02,15,04,56,1.50
2015,02,15,04,57,1.50
2015,02,15,04,58,1.50
2015,02,15,04,59,1.40
2015,02,15,05,00,1.40
2015,02,15,05,01,1.40
2015,02,15,05,02,1.50
2015,02,15,05,03,1.50
2015,02,15,05,04,1.50
2015,02,15,05,05,1.50
2015,02,15,05,06,1.50
2015,02,15,05,07,1.60
2015,02,15,05,08,1.60
2015,02,15,05,09,1.60
2015,02,15,05,10,1.60
2015,02,15,05,11,1.70
2015,02,15,05,12,1.70
2015,02,15,05,13,1.80
2015,02,15,05,14,1.80
2015,02,15,05,15,1.90
2015,02,15,05,16,1.90
2015,02,15,05,17,1.90
2015,02,15,05,18,1.90
2015,02,15,05,19,1.90
2015,02,15,05,20,1.90
2015,02,15,05,21,1.90
2015,02,15,05,22,1.90
2015,02,15,05,23,1.90
2015,02,15,05,24,1.90
2015,02,15,05,25,1.90
2015,02,15,05,26,2.00
2015,02,15,05,27,2.00
2015,02,15,05,28,2.00
2015,02,15,05,29,2.10
2015,02,15,05,30,2.10
2015,02,15,05,31,2.10
2015,02,15,05,32,2.20
2015,02,15,05,33,2.20
2015,02,15,05,34,2.20
2015,02,15,05,35,2.20
2015,02,15,05,36,2.10
2015,02,15,05,37,2.10
2015,02,15,05,38,2.00
2015,02,15,05,39,1.90
2015,02,15,05,40,1.90
2015,02,15,05,41,1.80
2015,02,15,05,42,1.80
2015,02,15,05,43,1.80
2015,02,15,05,44,1.80
2015,02,15,05,45,1.80
2015,02,15,05,46,1.80
2015,02,15,05,47,1.80
2015,02,15,05,48,1.80
2015,02,15,05,49,1.80
2015,02,15,05,50,1.80
2015,02,15,05,51,1.90
2015,02,15,05,52,1.90
2015,02,15,05,53,1.90
2015,02,15,05,54,2.00
2015,02,15,05,55,2.00
2015,02,15,05,56,2.00
2015,02,15,05,57,2.00
2015,02,15,05,58,2.00
2015,02,15,05,59,1.90
2015,02,15,06,00,1.90
2015,02,15,06,01,1.90
2015,02,15,06,02,1.80
2015,02,15,06,03,1.80
2015,02,15,06,04,1.80
2015,02,15,06,05,1.80
2015,02,15,06,06,1.80
2015,02,15,06,07,1.70
2015,02,15,06,08,1.70
2015,02,15,06,09,1.70
2015,02,15,06,10,1.70
2015,02,15,06,11,1.70
2015,02,15,06,12,1.70
2015,02,15,06,13,1.80
2015,02,15,06,14,1.80
2015,02,15,06,15,1.80
2015,02,15,06,16,1.80
2015,02,15,06,17,1.80
2015,02,15,06,18,1.70
2015,02,15,06,19,1.70
2015,02,15,06,20,1.70
2015,02,15,06,21,1.70
2015,02,15,06,22,1.60
2015,02,15,06,23,1.60
2015,02,15,06,24,1.60
2015,02,15,06,25,1.60
2015,02,15,06,26,1.50
2015,02,15,06,27,1.50
2015,02,15,06,28,1.50
2015,02,15,06,29,1.50
2015,02,15,06,30,1.50
2015,02,15,06,31,1.60
2015,02,15,06,32,1.60
2015,02,15,06,33,1.60
2015,02,15,06,34,1.60
2015,02,15,06,35,1.60
2015,02,15,06,36,1.60
2015,02,15,06,37,1.60
2015,02,15,06,38,1.60
2015,02,15,06,39,1.60
2015,02,15,06,40,1.60
2015,02,15,06,41,1.70
2015,02,15,06,42,1.70
2015,02,15,06,43,1.70
2015,02,15,06,44,1.70
2015,02,15,06,45,1.70
2015,02,15,06,46,1.70
2015,02,15,06,47,1.70
2015,02,15,06,48,1.70
2015,02,15,06,49,1.70
2015,02,15,06,50,1.70
2015,02,15,06,51,1.80
2015,02,15,06,52,1.80
2015,02,15,06,53,1.80
2015,02,15,06,54,1.80
2015,02,15,06,55,1.80
2015,02,15,06,56,1.80
2015,02,15,06,57,1.70
2015,02,15,06,58,1.70
2015,02,15,06,59,1.70
2015,02,15,07,00,1.70
2015,02,15,07,01,1.70
2015,02,15,07,02,1.70
2015,02,15,07,03,1.70
2015,02,15,07,04,1.60
2015,02,15,07,05,1.60
2015,02,15,07,06,1.60
2015,02,15,07,07,1.60
2015,02,15,07,08,1.50
2015,02,15,07,09,1.60
2015,02,15,07,10,1.60
2015,02,15,07,11,1.60
2015,02,15,07,12,1.60
2015,02,15,07,13,1.60
2015,02,15,07,14,1.60
2015,02,15,07,15,1.60
2015,02,15,07,16,1.60
2015,02,15,07,17,1.60
2015,02,15,07,18,1.60
2015,02,15,07,19,1.60
2015,02,15,07,20,1.50
2015,02,15,07,21,1.50
2015,02,15,07,22,1.50
2015,02,15,07,23,1.50
2015,02,15,07,24,1.50
2015,02,15,07,25,1.60
2015,02,15,07,26,1.60
2015,02,15,07,27,1.60
2015,02,15,07,28,1.60
2015,02,15,07,29,1.60
2015,02,15,07,30,1.60
2015,02,15,07,31,1.60
2015,02,15,07,32,1.60
2015,02,15,07,33,1.60
2015,02,15,07,34,1.50
2015,02,15,07,35,1.50
2015,02,15,07,36,1.50
2015,02,15,07,37,1.40
2015,02,15,07,38,1.40
2015,02,15,07,39,1.40
2015,02,15,07,40,1.50
2015,02,15,07,41,1.50
2015,02,15,07,42,1.60
2015,02,15,07,43,1.70
2015,02,15,07,44,1.70
2015,02,15,07,45,1.70
2015,02,15,07,46,1.80
2015,02,15,07,47,1.80
2015,02,15,07,48,1.80
2015,02,15,07,49,1.90
2015,02,15,07,50,1.90
2015,02,15,07,51,1.90
2015,02,15,07,52,2.00
2015,02,15,07,53,2.00
2015,02,15,07,54,2.00
2015,02,15,07,55,1.90
2015,02,15,07,56,1.90
2015,02,15,07,57,1.80
2015,02,15,07,58,1.80
2015,02,15,07,59,1.70
2015,02,15,08,00,1.70
2015,02,15,08,01,1.70
2015,02,15,08,02,1.60
2015,02,15,08,03,1.50
2015,02,15,08,04,1.50
2015,02,15,08,05,1.40
2015,02,15,08,06,1.40
2015,02,15,08,07,1.40
2015,02,15,08,08,1.40
2015,02,15,08,09,1.30
2015,02,15,08,10,1.30
2015,02,15,08,11,1.30
2015,02,15,08,12,1.30
2015,02,15,08,13,1.30
2015,02,15,08,14,1.30
2015,02,15,08,15,1.30
2015,02,15,08,16,1.30
2015,02,15,08,17,1.30
2015,02,15,08,18,1.30
2015,02,15,08,19,1.30
2015,02,15,08,20,1.30
2015,02,15,08,21,1.30
2015,02,15,08,22,1.30
2015,02,15,08,23,1.30
2015,02,15,08,24,1.40
2015,02,15,08,25,1.40
2015,02,15,08,26,1.40
2015,02,15,08,27,1.40
2015,02,15,08,28,1.50
2015,02,15,08,29,1.50
2015,02,15,08,30,1.60
2015,02,15,08,31,1.60
2015,02,15,08,32,1.70
2015,02,15,08,33,1.80
2015,02,15,08,34,1.80
2015,02,15,08,35,1.90
2015,02,15,08,36,2.00
2015,02,15,08,37,2.10
2015,02,15,08,38,2.10
2015,02,15,08,39,2.20
2015,02,15,08,40,2.30
2015,02,15,08,41,2.40
2015,02,15,08,42,2.50
2015,02,15,08,43,2.60
2015,02,15,08,44,2.70
2015,02,15,08,45,2.80
2015,02,15,08,46,2.90
2015,02,15,08,47,3.00
2015,02,15,08,48,3.10
2015,02,15,08,49,3.20
2015,02,15,08,50,3.40
2015,02,15,08,51,3.50
2015,02,15,08,52,3.60
2015,02,15,08,53,3.60
2015,02,15,08,54,3.60
2015,02,15,08,55,3.80
2015,02,15,08,56,4.00
2015,02,15,08,57,4.10
2015,02,15,08,58,4.20
2015,02,15,08,59,4.30
2015,02,15,09,00,4.40
2015,02,15,09,01,4.50
2015,02,15,09,02,4.60
2015,02,15,09,03,4.70
2015,02,15,09,04,4.80
2015,02,15,09,05,4.90
2015,02,15,09,06,5.00
2015,02,15,09,07,5.00
2015,02,15,09,08,5.10
2015,02,15,09,09,5.10
2015,02,15,09,10,5.20
2015,02,15,09,11,5.20
2015,02,15,09,12,5.30
2015,02,15,09,13,5.30
2015,02,15,09,14,5.40
2015,02,15,09,15,5.50
2015,02,15,09,16,5.60
2015,02,15,09,17,5.70
2015,02,15,09,18,5.80
2015,02,15,09,19,5.90
2015,02,15,09,20,6.00
2015,02,15,09,21,6.10
2015,02,15,09,22,6.20
2015,02,15,09,23,6.30
2015,02,15,09,24,6.40
2015,02,15,09,25,6.50
2015,02,15,09,26,6.60
2015,02,15,09,27,6.70
2015,02,15,09,28,6.70
2015,02,15,09,29,6.80
2015,02,15,09,30,6.80
2015,02,15,09,31,6.90
2015,02,15,09,32,6.90
2015,02,15,09,33,6.90
2015,02,15,09,34,7.00
2015,02,15,09,35,7.00
2015,02,15,09,36,7.00
2015,02,15,09,37,7.00
2015,02,15,09,38,7.00
2015,02,15,09,39,7.10
2015,02,15,09,40,7.10
2015,02,15,09,41,7.10
2015,02,15,09,42,7.20
2015,02,15,09,43,7.20
2015,02,15,09,44,7.30
2015,02,15,09,45,7.30
2015,02,15,09,46,7.40
2015,02,15,09,47,7.50
2015,02,15,09,48,7.50
2015,02,15,09,49,7.60
2015,02,15,09,50,7.60
2015,02,15,09,51,7.70
2015,02,15,09,52,7.70
2015,02,15,09,53,7.70
2015,02,15,09,54,7.80
2015,02,15,09,55,7.80
2015,02,15,09,56,7.80
2015,02,15,09,57,7.90
2015,02,15,09,58,8.00
2015,02,15,09,59,8.10
2015,02,15,10,00,8.20
2015,02,15,10,01,8.30
2015,02,15,10,02,8.30
2015,02,15,10,03,8.30
2015,02,15,10,04,8.30
2015,02,15,10,05,8.30
2015,02,15,10,06,8.30
2015,02,15,10,07,8.40
2015,02,15,10,08,8.50
2015,02,15,10,09,8.60
2015,02,15,10,10,8.60
2015,02,15,10,11,8.60
2015,02,15,10,12,8.70
2015,02,15,10,13,8.70
2015,02,15,10,14,8.70
2015,02,15,10,15,8.70
2015,02,15,10,16,8.80
2015,02,15,10,17,8.80
2015,02,15,10,18,8.90
2015,02,15,10,19,8.90
2015,02,15,10,20,9.00
2015,02,15,10,21,9.00
2015,02,15,10,22,9.10
2015,02,15,10,23,9.10
2015,02,15,10,24,9.20
2015,02,15,10,25,9.20
2015,02,15,10,26,9.30
2015,02,15,10,27,9.30
2015,02,15,10,28,9.30
2015,02,15,10,29,9.30
2015,02,15,10,30,9.30
2015,02,15,10,31,9.30
2015,02,15,10,32,9.30
2015,02,15,10,33,9.40
2015,02,15,10,34,9.40
2015,02,15,10,35,9.50
2015,02,15,10,36,9.50
2015,02,15,10,37,9.60
2015,02,15,10,38,9.70
2015,02,15,10,39,9.70
2015,02,15,10,40,9.70
2015,02,15,10,41,9.70
2015,02,15,10,42,9.60
2015,02,15,10,43,9.60
2015,02,15,10,44,9.60
2015,02,15,10,45,9.60
2015,02,15,10,46,9.60
2015,02,15,10,47,9.70
2015,02,15,10,48,9.80
2015,02,15,10,49,9.80
2015,02,15,10,50,9.80
2015,02,15,10,51,9.80
2015,02,15,10,52,9.80
2015,02,15,10,53,9.80
2015,02,15,10,54,9.80
2015,02,15,10,55,9.90
2015,02,15,10,56,9.90
2015,02,15,10,57,10.00
2015,02,15,10,58,10.00
2015,02,15,10,59,10.00
2015,02,15,11,00,10.00
2015,02,15,11,01,10.00
2015,02,15,11,02,10.00
2015,02,15,11,03,10.10
2015,02,15,11,04,10.10
2015,02,15,11,05,10.20
2015,02,15,11,06,10.30
2015,02,15,11,07,10.20
2015,02,15,11,08,10.20
2015,02,15,11,09,10.20
2015,02,15,11,10,10.20
2015,02,15,11,11,10.20
2015,02,15,11,12,10.10
2015,02,15,11,13,10.20
2015,02,15,11,14,10.10
2015,02,15,11,15,10.00
2015,02,15,11,16,10.00
2015,02,15,11,17,10.00
2015,02,15,11,18,10.00
2015,02,15,11,19,10.00
2015,02,15,11,20,10.00
2015,02,15,11,21,10.00
2015,02,15,11,22,9.90
2015,02,15,11,23,9.90
2015,02,15,11,24,9.90
2015,02,15,11,25,9.80
2015,02,15,11,26,9.80
2015,02,15,11,27,9.90
2015,02,15,11,28,9.90
2015,02,15,11,29,9.90
2015,02,15,11,30,9.80
2015,02,15,11,31,9.80
2015,02,15,11,32,9.80
2015,02,15,11,33,9.80
2015,02,15,11,34,9.80
2015,02,15,11,35,9.80
2015,02,15,11,36,9.70
2015,02,15,11,37,9.70
2015,02,15,11,38,9.70
2015,02,15,11,39,9.80
2015,02,15,11,40,9.80
2015,02,15,11,41,9.80
2015,02,15,11,42,9.80
2015,02,15,11,43,9.80
2015,02,15,11,44,9.80
2015,02,15,11,45,9.90
2015,02,15,11,46,9.90
2015,02,15,11,47,9.90
2015,02,15,11,48,9.90
2015,02,15,11,49,9.90
2015,02,15,11,50,9.90
2015,02,15,11,51,9.90
2015,02,15,11,52,10.00
2015,02,15,11,53,10.00
2015,02,15,11,54,10.00
2015,02,15,11,55,10.00
2015,02,15,11,56,10.10
2015,02,15,11,57,10.20
2015,02,15,11,58,10.20
2015,02,15,11,59,10.30
2015,02,15,12,00,10.30
2015,02,15,12,01,10.30
2015,02,15,12,02,10.30
2015,02,15,12,03,10.30
2015,02,15,12,04,10.30
2015,02,15,12,05,10.20
2015,02,15,12,06,10.20
2015,02,15,12,07,10.30
2015,02,15,12,08,10.30
2015,02,15,12,09,10.40
2015,02,15,12,10,10.40
2015,02,15,12,11,10.50
2015,02,15,12,12,10.50
2015,02,15,12,13,10.60
2015,02,15,12,14,10.60
2015,02,15,12,15,10.70
2015,02,15,12,16,10.70
2015,02,15,12,17,10.80
2015,02,15,12,18,10.90
2015,02,15,12,19,10.90
2015,02,15,12,20,11.10
2015,02,15,12,21,11.10
2015,02,15,12,22,11.20
2015,02,15,12,23,11.20
2015,02,15,12,24,11.20
2015,02,15,12,25,11.10
2015,02,15,12,26,11.00
2015,02,15,12,27,11.00
2015,02,15,12,28,10.90
2015,02,15,12,29,10.90
2015,02,15,12,30,10.90
2015,02,15,12,31,10.90
2015,02,15,12,32,11.00
2015,02,15,12,33,11.00
2015,02,15,12,34,11.00
2015,02,15,12,35,11.00
2015,02,15,12,36,11.00
2015,02,15,12,37,11.00
2015,02,15,12,38,11.00
2015,02,15,12,39,11.00
2015,02,15,12,40,11.00
2015,02,15,12,41,11.00
2015,02,15,12,42,11.00
2015,02,15,12,43,10.90
2015,02,15,12,44,10.90
2015,02,15,12,45,10.80
2015,02,15,12,46,10.80
2015,02,15,12,47,10.80
2015,02,15,12,48,10.90
2015,02,15,12,49,10.90
2015,02,15,12,50,10.80
2015,02,15,12,51,10.80
2015,02,15,12,52,10.80
2015,02,15,12,53,10.80
2015,02,15,12,54,10.80
2015,02,15,12,55,10.80
2015,02,15,12,56,10.80
2015,02,15,12,57,10.80
2015,02,15,12,58,10.80
2015,02,15,12,59,10.80
2015,02,15,13,00,10.80
2015,02,15,13,01,10.80
2015,02,15,13,02,10.80
2015,02,15,13,03,10.80
2015,02,15,13,04,10.80
2015,02,15,13,05,10.80
2015,02,15,13,06,10.80
2015,02,15,13,07,10.80
2015,02,15,13,08,10.80
2015,02,15,13,09,10.80
2015,02,15,13,10,10.80
2015,02,15,13,11,10.80
2015,02,15,13,12,10.80
2015,02,15,13,13,10.80
2015,02,15,13,14,10.80
2015,02,15,13,15,10.80
2015,02,15,13,16,10.80
2015,02,15,13,17,10.80
2015,02,15,13,18,10.70
2015,02,15,13,19,10.70
2015,02,15,13,20,10.80
2015,02,15,13,21,10.80
2015,02,15,13,22,10.80
2015,02,15,13,23,10.90
2015,02,15,13,24,10.90
2015,02,15,13,25,11.00
2015,02,15,13,26,11.00
2015,02,15,13,27,11.00
2015,02,15,13,28,11.00
2015,02,15,13,29,11.00
2015,02,15,13,30,11.00
2015,02,15,13,31,11.00
2015,02,15,13,32,11.00
2015,02,15,13,33,11.00
2015,02,15,13,34,11.00
2015,02,15,13,35,11.00
2015,02,15,13,36,11.00
2015,02,15,13,37,11.00
2015,02,15,13,38,11.00
2015,02,15,13,39,11.00
2015,02,15,13,40,11.00
2015,02,15,13,41,11.00
2015,02,15,13,42,11.00
2015,02,15,13,43,11.00
2015,02,15,13,44,11.10
2015,02,15,13,45,11.10
2015,02,15,13,46,11.10
2015,02,15,13,47,11.10
2015,02,15,13,48,11.10
2015,02,15,13,49,11.10
2015,02,15,13,50,11.10
2015,02,15,13,51,11.10
2015,02,15,13,52,11.10
2015,02,15,13,53,11.10
2015,02,15,13,54,11.10
2015,02,15,13,55,11.10
2015,02,15,13,56,11.10
2015,02,15,13,57,11.10
2015,02,15,13,58,11.10
2015,02,15,13,59,11.20
2015,02,15,14,00,11.20
2015,02,15,14,01,11.20
2015,02,15,14,02,11.20
2015,02,15,14,03,11.20
2015,02,15,14,04,11.30
2015,02,15,14,05,11.30
2015,02,15,14,06,11.30
2015,02,15,14,07,11.30
2015,02,15,14,08,11.30
2015,02,15,14,09,11.30
2015,02,15,14,10,11.40
2015,02,15,14,11,11.40
2015,02,15,14,12,11.40
2015,02,15,14,13,11.40
2015,02,15,14,14,11.50
2015,02,15,14,15,11.50
2015,02,15,14,16,11.60
2015,02,15,14,17,11.60
2015,02,15,14,18,11.60
2015,02,15,14,19,11.70
2015,02,15,14,20,11.70
2015,02,15,14,21,11.80
2015,02,15,14,22,11.80
2015,02,15,14,23,11.80
2015,02,15,14,24,11.80
2015,02,15,14,25,11.90
2015,02,15,14,26,11.80
2015,02,15,14,27,11.80
2015,02,15,14,28,11.70
2015,02,15,14,29,11.70
2015,02,15,14,30,11.60
2015,02,15,14,31,11.60
2015,02,15,14,32,11.60
2015,02,15,14,33,11.60
2015,02,15,14,34,11.50
2015,02,15,14,35,11.50
2015,02,15,14,36,11.50
2015,02,15,14,37,11.40
2015,02,15,14,38,11.40
2015,02,15,14,39,11.50
2015,02,15,14,40,11.50
2015,02,15,14,41,11.50
2015,02,15,14,42,11.40
2015,02,15,14,43,11.40
2015,02,15,14,44,11.40
2015,02,15,14,45,11.40
2015,02,15,14,46,11.40
2015,02,15,14,47,11.40
2015,02,15,14,48,11.40
2015,02,15,14,49,11.40
2015,02,15,14,50,11.40
2015,02,15,14,51,11.40
2015,02,15,14,52,11.40
2015,02,15,14,53,11.40
2015,02,15,14,54,11.50
2015,02,15,14,55,11.50
2015,02,15,14,56,11.50
2015,02,15,14,57,11.50
2015,02,15,14,58,11.50
2015,02,15,14,59,11.40
2015,02,15,15,00,11.40
2015,02,15,15,01,11.40
2015,02,15,15,02,11.40
2015,02,15,15,03,11.40
2015,02,15,15,04,11.30
2015,02,15,15,05,11.30
2015,02,15,15,06,11.30
2015,02,15,15,07,11.30
2015,02,15,15,08,11.30
2015,02,15,15,09,11.30
2015,02,15,15,10,11.20
2015,02,15,15,11,11.20
2015,02,15,15,12,11.20
2015,02,15,15,13,11.20
2015,02,15,15,14,11.10
2015,02,15,15,15,11.10
2015,02,15,15,16,11.10
2015,02,15,15,17,11.10
2015,02,15,15,18,11.00
2015,02,15,15,19,11.00
2015,02,15,15,20,11.00
2015,02,15,15,21,11.00
2015,02,15,15,22,11.00
2015,02,15,15,23,11.00
2015,02,15,15,24,11.00
2015,02,15,15,25,11.00
2015,02,15,15,26,10.90
2015,02,15,15,27,10.90
2015,02,15,15,28,10.90
2015,02,15,15,29,10.90
2015,02,15,15,30,10.80
2015,02,15,15,31,10.80
2015,02,15,15,32,10.80
2015,02,15,15,33,10.80
2015,02,15,15,34,10.70
2015,02,15,15,35,10.70
2015,02,15,15,36,10.70
2015,02,15,15,37,10.70
2015,02,15,15,38,10.70
2015,02,15,15,39,10.70
2015,02,15,15,40,10.70
2015,02,15,15,41,10.60
2015,02,15,15,42,10.60
2015,02,15,15,43,10.60
2015,02,15,15,44,10.60
2015,02,15,15,45,10.50
2015,02,15,15,46,10.40
2015,02,15,15,47,10.40
2015,02,15,15,48,10.30
2015,02,15,15,49,10.30
2015,02,15,15,50,10.30
2015,02,15,15,51,10.20
2015,02,15,15,52,10.20
2015,02,15,15,53,10.10
2015,02,15,15,54,10.10
2015,02,15,15,55,10.00
2015,02,15,15,56,10.00
2015,02,15,15,57,9.90
2015,02,15,15,58,9.80
2015,02,15,15,59,9.80
2015,02,15,16,00,9.70
2015,02,15,16,01,9.70
2015,02,15,16,02,9.60
2015,02,15,16,03,9.60
2015,02,15,16,04,9.60
2015,02,15,16,05,9.50
2015,02,15,16,06,9.50
2015,02,15,16,07,9.40
2015,02,15,16,08,9.40
2015,02,15,16,09,9.30
2015,02,15,16,10,9.30
2015,02,15,16,11,9.30
2015,02,15,16,12,9.20
2015,02,15,16,13,9.20
2015,02,15,16,14,9.20
2015,02,15,16,15,9.10
2015,02,15,16,16,9.10
2015,02,15,16,17,9.00
2015,02,15,16,18,9.00
2015,02,15,16,19,9.00
2015,02,15,16,20,8.90
2015,02,15,16,21,8.90
2015,02,15,16,22,8.90
2015,02,15,16,23,8.80
2015,02,15,16,24,8.80
2015,02,15,16,25,8.80
2015,02,15,16,26,8.80
2015,02,15,16,27,8.70
2015,02,15,16,28,8.70
2015,02,15,16,29,8.70
2015,02,15,16,30,8.70
2015,02,15,16,31,8.60
2015,02,15,16,32,8.60
2015,02,15,16,33,8.60
2015,02,15,16,34,8.50
2015,02,15,16,35,8.50
2015,02,15,16,36,8.50
2015,02,15,16,37,8.40
2015,02,15,16,38,8.40
2015,02,15,16,39,8.30
2015,02,15,16,40,8.30
2015,02,15,16,41,8.30
2015,02,15,16,42,8.30
2015,02,15,16,43,8.30
2015,02,15,16,44,8.20
2015,02,15,16,45,8.20
2015,02,15,16,46,8.20
2015,02,15,16,47,8.20
2015,02,15,16,48,8.10
2015,02,15,16,49,8.10
2015,02,15,16,50,8.10
2015,02,15,16,51,8.10
2015,02,15,16,52,8.00
2015,02,15,16,53,8.00
2015,02,15,16,54,7.90
2015,02,15,16,55,7.90
2015,02,15,16,56,7.90
2015,02,15,16,57,7.90
2015,02,15,16,58,7.90
2015,02,15,16,59,7.80
2015,02,15,17,00,7.80
2015,02,15,17,01,7.80
2015,02,15,17,02,7.80
2015,02,15,17,03,7.80
2015,02,15,17,04,7.80
2015,02,15,17,05,7.80
2015,02,15,17,06,7.70
2015,02,15,17,07,7.70
2015,02,15,17,08,7.70
2015,02,15,17,09,7.70
2015,02,15,17,10,7.70
2015,02,15,17,11,7.70
2015,02,15,17,12,7.60
2015,02,15,17,13,7.60
2015,02,15,17,14,7.60
2015,02,15,17,15,7.60
2015,02,15,17,16,7.60
2015,02,15,17,17,7.50
2015,02,15,17,18,7.50
2015,02,15,17,19,7.50
2015,02,15,17,20,7.50
2015,02,15,17,21,7.40
2015,02,15,17,22,7.40
2015,02,15,17,23,7.40
2015,02,15,17,24,7.40
2015,02,15,17,25,7.40
2015,02,15,17,26,7.30
2015,02,15,17,27,7.30
2015,02,15,17,28,7.30
2015,02,15,17,29,7.30
2015,02,15,17,30,7.30
2015,02,15,17,31,7.30
2015,02,15,17,32,7.30
2015,02,15,17,33,7.20
2015,02,15,17,34,7.20
2015,02,15,17,35,7.20
2015,02,15,17,36,7.20
2015,02,15,17,37,7.20
2015,02,15,17,38,7.20
2015,02,15,17,39,7.10
2015,02,15,17,40,7.10
2015,02,15,17,41,7.10
2015,02,15,17,42,7.10
2015,02,15,17,43,7.10
2015,02,15,17,44,7.00
2015,02,15,17,45,7.00
2015,02,15,17,46,7.00
2015,02,15,17,47,6.90
2015,02,15,17,48,6.90
2015,02,15,17,49,6.90
2015,02,15,17,50,6.90
2015,02,15,17,51,6.80
2015,02,15,17,52,6.80
2015,02,15,17,53,6.80
2015,02,15,17,54,6.80